WetterOnline ( http://www.wetteronline.de )

Wetter aktuell Idar-Oberstein

Aktuelles Wetter: Deuselbach (483m)

6-stündlich | Neueste Meldungen
Ortszeit Temperatur Wetter
Do, 19.07. 20:00 24.7° C leicht bewölkt
Do, 19.07. 14:00 25.7° C wolkenlos
Do, 19.07. 8:00 18.8° C wolkenlos
Do, 19.07. 2:00 15.7° C wolkig
Mi, 18.07. 20:00 23.4° C wolkenlos
Mi, 18.07. 14:00 22.5° C wolkig
Mi, 18.07. 8:00 16.4° C fast wolkenlos
Mi, 18.07. 2:00 16.2° C wolkenlos
Ortszeit Temperatur Wetter
Do, 19.07. 21:00 23.5° C wolkig
Do, 19.07. 20:50 23.5° C bewölkt
Do, 19.07. 20:40 23.8° C wolkig
Do, 19.07. 20:30 24.0° C wolkig
Do, 19.07. 20:20 24.0° C wolkig
Do, 19.07. 20:10 24.2° C wolkig
Do, 19.07. 20:00 24.7° C leicht bewölkt
Do, 19.07. 19:30 25.1° C wolkig
Do, 19.07. 19:00 25.6° C leicht bewölkt
Do, 19.07. 18:30 25.4° C leicht bewölkt
Do, 19.07. 18:00 24.9° C wolkig
Ortszeit Relative Feuchte Sichtweite
Do, 19.07. 20:00 37% 50 km
Do, 19.07. 14:00 36% 30 km
Do, 19.07. 8:00 55% 35 km
Do, 19.07. 2:00 61% 40 km
Mi, 18.07. 20:00 38% 65 km
Mi, 18.07. 14:00 40% 45 km
Mi, 18.07. 8:00 70% 45 km
Mi, 18.07. 2:00 80% 35 km
Ortszeit Relative Feuchte Sichtweite
Do, 19.07. 21:00 42% 55 km
Do, 19.07. 20:50 42% -
Do, 19.07. 20:40 42% -
Do, 19.07. 20:30 40% 50 km
Do, 19.07. 20:20 40% -
Do, 19.07. 20:10 40% -
Do, 19.07. 20:00 37% 50 km
Do, 19.07. 19:30 36% 50 km
Do, 19.07. 19:00 34% 60 km
Do, 19.07. 18:30 34% 70 km
Do, 19.07. 18:00 38% 65 km
Ortszeit Niederschlagsmenge Niederschlagsart
Do, 19.07. 20:00 0.0 l/m2 in 12 Std. -
Do, 19.07. 14:00 0.0 l/m2 in 6 Std. -
Do, 19.07. 8:00 0.0 l/m2 in 12 Std. -
Do, 19.07. 2:00 0.0 l/m2 in 6 Std. -
Mi, 18.07. 20:00 0.0 l/m2 in 12 Std. -
Mi, 18.07. 14:00 0.0 l/m2 in 6 Std. -
Mi, 18.07. 8:00 0.0 l/m2 in 12 Std. -
Mi, 18.07. 2:00 0.0 l/m2 in 6 Std. -
Ortszeit Niederschlagsmenge Niederschlagsart
Do, 19.07. 21:00 0.0 l/m2 in 1 Std. -
Do, 19.07. 20:50 keine Meldung -
Do, 19.07. 20:40 keine Meldung -
Do, 19.07. 20:30 0.0 l/m2 in 1 Std. -
Do, 19.07. 20:20 keine Meldung -
Do, 19.07. 20:10 keine Meldung -
Do, 19.07. 20:00 0.0 l/m2 in 1 Std. -
Do, 19.07. 19:30 0.0 l/m2 in 1 Std. -
Do, 19.07. 19:00 0.0 l/m2 in 1 Std. -
Do, 19.07. 18:30 0.0 l/m2 in 1 Std. -
Do, 19.07. 18:00 0.0 l/m2 in 1 Std. -
Ortszeit Stärke Spitze Richtung
km/h Bft. km/h Grad Sektor
Do, 19.07. 20:00 9 2 24 40° NO
Do, 19.07. 14:00 11 2 22 80° O
Do, 19.07. 8:00 6 1 19 40° NO
Do, 19.07. 2:00 6 1 17 120° SO
Mi, 18.07. 20:00 11 2 29 300° NW
Mi, 18.07. 14:00 22 4 36 330° NW
Mi, 18.07. 8:00 4 1 7 50° NO
Mi, 18.07. 2:00 4 1 29 120° SO
Ortszeit Stärke Spitze Richtung
km/h Bft. km/h Grad Sektor
Do, 19.07. 21:00 4 1 11 140° SO
Do, 19.07. 20:50 4 1 - 140° SO
Do, 19.07. 20:40 4 1 - 100° O
Do, 19.07. 20:30 6 1 11 60° NO
Do, 19.07. 20:20 6 1 - 60° NO
Do, 19.07. 20:10 7 2 - 50° NO
Do, 19.07. 20:00 9 2 15 40° NO
Do, 19.07. 19:30 11 2 14 40° NO
Do, 19.07. 19:00 4 1 11 40° NO
Do, 19.07. 18:30 4 1 11 90° O
Do, 19.07. 18:00 13 3 19 40° NO
Ortszeit Untergrenze Bedeckung Gattung
total tief tief mittel hoch
Do, 19.07. 20:00 9000 m 8/8 0/8 - - -
Do, 19.07. 14:00 - 0/8 0/8 - - -
Do, 19.07. 8:00 - 0/8 0/8 - - -
Do, 19.07. 2:00 9000 m 8/8 0/8 - - -
Mi, 18.07. 20:00 - 0/8 0/8 - - -
Mi, 18.07. 14:00 1800 m 6/8 - - - -
Mi, 18.07. 8:00 2100 m 1/8 1/8 - - -
Mi, 18.07. 2:00 - 0/8 0/8 - - -
Ortszeit Bedeckungsgrad in Achtel und Wolkenuntergrenze
Do, 19.07. 21:00 6(2100m) 7(9000m) 7(10500m)
Do, 19.07. 20:50 6(2100m) 7(9000m) 7(10500m)
Do, 19.07. 20:40 4(2100m) 6(9000m) 7(10500m)
Do, 19.07. 20:30 7(9000m) 8(10500m) 7(10500m)
Do, 19.07. 20:20 7(9000m) 8(10500m)
Do, 19.07. 20:10 6(9000m) 8(10500m)
Do, 19.07. 20:00 8(9000m) 8(10500m)
Do, 19.07. 19:30 5(7200m) 7(9000m) 8(10500m)
Do, 19.07. 19:00 3(8100m) 5(9000m) 7(9000m)
Do, 19.07. 18:30 1(2100m) 6(9000m)
Do, 19.07. 18:00 4(2100m) 6(8400m) 7(9000m)
Ortszeit Luftdruck NN (hPa) Tendenz (hPa in 3 Std.)
Do, 19.07. 20:00 1014 - 0,8
Do, 19.07. 14:00 1016 - 0,6
Do, 19.07. 8:00 1018 + 0,1
Do, 19.07. 2:00 1019 + 0,3
Mi, 18.07. 20:00 1016 - 0,7
Mi, 18.07. 14:00 1017 - 0,6
Mi, 18.07. 8:00 1019 + 0,3
Mi, 18.07. 2:00 1018 + 0,5
Ortszeit Luftdruck NN (hPa) Tendenz (hPa in 3 Std.)
Do, 19.07. 21:00 1015 - 0,4
Do, 19.07. 20:50 1015 keine Meldung
Do, 19.07. 20:40 1015 keine Meldung
Do, 19.07. 20:30 1014 - 0,6
Do, 19.07. 20:20 1014 keine Meldung
Do, 19.07. 20:10 1014 keine Meldung
Do, 19.07. 20:00 1014 - 0,8
Do, 19.07. 19:30 1014 - 0,9
Do, 19.07. 19:00 1014 - 1,1
Do, 19.07. 18:30 1015 - 1,0
Do, 19.07. 18:00 1015 - 1,0
Ortszeit Schneehöhe (cm)
Do, 19.07. 20:00 -
Do, 19.07. 14:00 -
Do, 19.07. 8:00 -
Do, 19.07. 2:00 -
Mi, 18.07. 20:00 -
Mi, 18.07. 14:00 -
Mi, 18.07. 8:00 -
Mi, 18.07. 2:00 -
Ortszeit Schneehöhe (cm)
Do, 19.07. 21:00 -
Do, 19.07. 20:50 -
Do, 19.07. 20:40 -
Do, 19.07. 20:30 -
Do, 19.07. 20:20 -
Do, 19.07. 20:10 -
Do, 19.07. 20:00 -
Do, 19.07. 19:30 -
Do, 19.07. 19:00 -
Do, 19.07. 18:30 -
Do, 19.07. 18:00 -
Link zu dieser Seite / Seite empfehlen

Das Wetter in ...